Vorticity
nan nan nan nan nan nan nan nan nan nan nan nan nan nan nan nan nan nan nan nan nan nan nan nan nan nan nan nan nan nan nan nan
nan 6 5 4 5 5 6 6 6 6 6 5 6 5 5 5 6 5 5 5 5 5 5 4 4 5 6 4 4 4 5 nan
nan 7 6 6 5 4 5 5 5 5 5 5 5 5 6 5 5 7 6 5 5 5 4 4 4 6 7 6 4 4 7 nan
nan 6 6 7 7 7 5 5 5 6 6 5 5 6 5 6 7 7 7 7 6 6 5 7 6 6 9 7 4 7 9 nan
nan 6 7 7 6 6 7 7 8 9 7 5 5 5 7 7 7 8 9 8 7 7 7 6 6 6 5 5 7 7 7 nan
nan 6 6 6 7 8 8 7 6 7 8 7 5 6 6 6 6 7 7 7 7 7 7 7 7 6 5 5 6 6 5 nan
nan 5 5 7 6 6 7 7 7 7 8 7 5 6 7 7 7 7 7 8 8 8 7 7 8 8 8 7 6 6 5 nan
nan 7 6 5 6 7 6 7 8 7 8 9 8 7 8 8 8 8 8 8 8 8 8 9 9 9 8 9 8 7 8 nan
nan 8 8 7 7 7 7 9 9 9 9 10 13 12 10 9 9 10 10 10 10 9 9 10 10 10 9 9 10 9 8 nan
nan 8 9 8 7 8 10 11 10 9 9 8 11 13 13 12 10 10 11 10 11 11 11 11 9 8 10 9 9 9 9 nan
nan 8 8 8 5 6 10 10 8 8 8 8 8 8 10 9 8 8 8 8 8 9 8 8 9 9 8 9 9 9 10 nan
nan 9 8 6 5 6 7 6 7 8 8 9 8 7 7 8 7 8 8 8 7 8 8 8 7 7 8 8 8 11 11 nan
nan 10 7 5 6 5 6 6 6 7 7 8 7 7 6 8 9 8 9 8 8 8 8 7 7 9 10 7 11 8 10 nan
nan 9 6 6 8 6 8 8 6 6 7 6 7 9 8 8 9 8 9 8 7 7 8 9 7 7 9 10 10 12 6 nan
nan 7 7 9 9 7 8 8 8 6 7 6 7 8 8 8 8 8 8 7 7 6 6 9 9 6 9 12 7 6 8 nan
nan 9 8 10 10 9 7 7 7 7 8 8 8 8 7 7 7 7 8 7 7 6 7 7 7 8 9 9 7 7 7 nan
nan 8 10 11 10 9 8 9 8 9 8 8 7 6 6 7 8 8 7 6 5 7 6 6 7 8 7 7 9 9 7 nan
nan 9 8 8 9 8 9 8 7 9 8 6 6 8 8 7 6 6 7 7 7 8 8 8 8 8 8 7 7 6 8 nan
nan 8 8 7 7 8 7 7 8 8 7 7 7 7 7 5 7 8 7 7 8 9 8 9 8 7 6 8 9 7 8 nan
nan nan nan nan nan nan nan nan nan nan nan nan nan nan nan nan nan nan nan nan nan nan nan nan nan nan nan nan nan nan nan nan
CAPE
1447 1958 1788 1564 1653 1460 1278 1147 1068 1066 1094 1214 1219 1001 879 908 896 972 958 890 840 711 466 383 369 306 138 1 0 0 2 0
1158 1617 2104 2132 1675 975 1218 1166 1089 1077 983 949 812 643 559 615 632 757 859 755 651 494 406 323 331 303 158 33 0 0 131 3
1262 1324 1670 1622 1857 1628 1176 1184 1128 1092 1078 938 829 1248 1028 607 349 373 755 648 491 379 287 230 168 136 128 5 0 112 85 63
872 793 858 755 858 1094 1105 1473 1853 1879 1744 1705 1417 831 1072 565 230 257 383 537 381 289 205 137 99 481 401 3 136 76 97 67
522 695 670 644 619 824 730 1128 1185 1585 1715 1642 942 361 432 760 631 384 500 318 557 385 451 427 488 545 408 327 128 76 132 70
341 521 592 563 484 660 782 886 700 724 1128 1457 807 407 982 625 414 379 353 262 381 473 486 553 569 449 376 345 244 193 201 132
770 307 349 392 584 592 586 431 849 1208 1127 1097 981 827 693 470 393 376 391 338 343 454 556 645 698 622 536 425 380 354 311 238
1078 883 905 803 970 720 980 1012 843 692 577 576 372 266 248 110 68 47 105 167 432 557 677 715 341 121 96 91 216 626 630 559
1252 1123 945 898 910 821 798 852 1022 948 979 900 793 538 590 415 496 230 178 70 179 437 871 703 516 305 287 293 170 192 225 633
1539 1131 968 980 1063 1425 1628 1650 1119 776 649 442 362 526 670 677 567 323 215 208 91 82 128 143 132 123 101 36 11 90 59 174
1760 1386 1116 1139 1302 731 651 566 194 41 0 0 0 3 0 0 0 0 0 0 0 0 0 1 0 0 0 0 0 0 10 30
1456 1381 1278 1165 1186 107 0 9 0 0 0 0 0 0 0 0 0 0 0 0 1 1 0 1 0 0 0 0 0 0 0 0
1157 1174 1156 911 639 0 0 0 0 0 0 0 0 0 0 0 0 0 0 1 3 4 8 4 1 3 5 0 0 0 0 0
1162 1010 734 149 98 0 0 0 0 0 0 0 0 0 0 0 0 0 0 0 1 1 0 0 3 1 3 0 0 0 1 0
21 0 0 0 0 0 0 0 0 0 0 0 0 0 0 0 0 0 0 0 0 0 0 0 0 0 0 28 5 5 21 2
0 0 0 0 0 0 0 0 0 0 0 0 0 0 0 0 0 0 0 0 0 0 0 0 0 0 0 7 46 55 14 0
0 0 0 0 0 0 0 0 0 0 0 0 0 0 0 0 0 0 0 0 0 0 0 0 0 0 0 0 0 0 29 36
0 0 0 0 0 0 0 0 0 0 0 0 0 0 0 0 0 0 0 0 0 0 0 0 0 11 15 25 26 7 0 28
0 0 0 0 0 0 0 0 0 0 0 0 0 0 0 0 0 0 0 0 0 0 0 0 0 2 9 16 32 41 56 77
0 0 0 0 0 0 0 0 0 0 0 0 0 0 0 0 0 0 0 0 0 0 0 0 0 0 0 6 13 24 68 108